Content
SEND FEEDBACK

Daily
Averages
Monthly
Summary
Canada

RICHMOND NATURE PARK, BRITISH COLUMBIA


Home > North America > Canada > British Columbia
Elevation: 10 feet     Latitude: 49 10N     Longitude: 123 05W

WEATHER
 
SELECT A DAY
Number of Records: 194,376;   Date Range: 1/1/95 - 7/27/14
 
SHARE

PRINT THIS DATA

[ ← Previous Day ]
WEATHER ALMANAC - JANUARY 7, 2013
[ Next Day → ]
[ °C ]   °F
Weather ElementAverageHighLow
Temperature40.1 °F44.6 °F (2:14 pm)37 °F (4:00 am)
Dewpoint28.2 °F41 °F (12:00 pm) (7:00 pm)
Humidity95.3 %100 % (1:00 am)87 % (11:00 pm)
Wind Speed10.5 mph19.6 mph (6:00 pm)
Wind Gust24.2 mph (4:00 am)
Weather ElementAverage
Visibility11.1 mi
Wind DirectionSSE (146.5 °)

Weather ElementTotal
Precipitation---
Heating Degree Days24.2 (Base 65)
Averaged from 37 records on January 7, 2013
WEATHER CONDITIONS BREAKOUT
WIND DIRECTION BREAKOUT
WEATHER BY HOUR - JANUARY 7, 2013
[ °C ]   °F
Local TimeTemperatureDewpointHumidityBarometerVisibilityWind DirectionWind SpeedGust SpeedPrecipitationEventsConditions
12:36 AM37.4 °F0.0 °F8.0 miEast (90°)12.7 mphRainLight Rain
1:00 AM37.4 °F37.4 °F100 %29.95 in10.0 miWest (280°)15.0 mphRainLight Rain
2:00 AM37.4 °F37.4 °F100 %29.94 in10.0 miEast (80°)13.8 mphRainLight Rain
3:00 AM37.4 °F37.4 °F100 %29.92 in10.0 miEast (80°)13.8 mphRainLight Rain
4:00 AM37.0 °F36.0 °F93 %29.88 in10.0 miEast (90°)16.1 mphRainLight Rain
4:00 AM37.4 °F35.6 °F93 %29.88 in10.0 miEast (80°)13.8 mph24.2 mphRainLight Rain
5:00 AM37.4 °F35.6 °F93 %29.84 in10.0 miENE (60°)17.3 mphRainLight Rain
6:00 AM37.4 °F35.6 °F93 %29.82 in10.0 miENE (60°)17.3 mphRainLight Rain
7:00 AM37.4 °F35.6 °F93 %29.80 in10.0 miENE (70°)13.8 mphRainLight Rain
8:00 AM37.4 °F37.4 °F100 %29.80 in8.0 miEast (80°)11.5 mphRainLight Rain
8:39 AM39.2 °F0.0 °F5.0 miEast (80°)11.5 mphRainLight Rain
9:00 AM39.2 °F39.2 °F100 %29.81 in3.0 miEast (80°)10.4 mphRainLight Rain
9:26 AM39.2 °F0.0 °F4.0 miEast (90°)9.2 mphLight Drizzle
9:48 AM39.2 °F0.0 °F4.0 miENE (70°)9.2 mphRainLight Rain
10:00 AM40.0 °F40.0 °F99 %29.81 in5.0 miENE (70°)8.1 mphRainLight Rain
10:00 AM39.2 °F39.2 °F100 %29.81 in5.0 miENE (70°)8.1 mphRainLight Rain
10:15 AM41.0 °F0.0 °F10.0 miENE (70°)9.2 mphOvercast
10:43 AM41.0 °F0.0 °F10.0 miEast (90°)10.4 mphOvercast
11:00 AM41.0 °F39.2 °F93 %29.82 in10.0 miENE (60°)9.2 mphOvercast
12:00 PM41.0 °F41.0 °F100 %29.83 in12.0 miEast (80°)8.1 mphOvercast
1:00 PM42.8 °F41.0 °F93 %29.84 in12.0 miENE (70°)5.8 mphMostly Cloudy
1:17 PM42.8 °F0.0 °F15.0 miEast (80°)3.5 mphMostly Cloudy
2:00 PM42.8 °F41.0 °F93 %29.87 in15.0 miCalmMostly Cloudy
2:14 PM44.6 °F0.0 °F15.0 miCalmMostly Cloudy
3:00 PM42.8 °F41.0 °F93 %29.91 in15.0 miWest (280°)4.6 mphMostly Cloudy
3:44 PM42.8 °F0.0 °F15.0 miWNW (290°)12.7 mphMostly Cloudy
4:00 PM43.0 °F41.0 °F92 %29.96 in12.0 miWNW (290°)9.2 mphPartly Cloudy
4:00 PM42.8 °F41.0 °F93 %29.96 in12.0 miWNW (290°)9.2 mphMostly Cloudy
4:32 PM42.8 °F0.0 °F15.0 miWest (270°)6.9 mphMostly Cloudy
5:00 PM41.0 °F41.0 °F100 %29.97 in15.0 miWest (270°)5.8 mphMostly Cloudy
6:00 PM42.8 °F41.0 °F93 %30.00 in15.0 miWNW (290°)19.6 mphMostly Cloudy
7:00 PM42.8 °F41.0 °F93 %30.02 in15.0 miWest (270°)13.8 mphMostly Cloudy
8:00 PM41.0 °F41.0 °F100 %30.04 in15.0 miWest (280°)16.1 mphPartly Cloudy
9:00 PM41.0 °F39.2 °F93 %30.08 in15.0 miWest (280°)13.8 mphPartly Cloudy
10:00 PM37.0 °F35.0 °F92 %30.09 in15.0 miWNW (290°)11.5 mphScattered Clouds
10:00 PM37.4 °F35.6 °F93 %30.09 in15.0 miWNW (290°)11.5 mphPartly Cloudy
11:00 PM41.0 °F37.4 °F87 %30.11 in15.0 miSSE (150°)5.8 mph17.3 mphMostly Cloudy
Hourly data recorded from CYVR, located miles away from Richmond Nature Park, British Columbia







STORIES FROM OUR PARTNERS